Weather History for O'Neill, NE

Change the Weather History Date:

Tuesday, November 20, 2012

  Actual Average Record
Temperature  
Mean Temperature 48 °F -  
Max Temperature 70 °F 42 °F 76 °F (1962)
Min Temperature 25 °F 23 °F 0 °F (1985)
Degree Days  
Heating Degree Days 18    
Moisture  
Dew Point 29 °F    
Average Humidity 49    
Maximum Humidity 88    
Minimum Humidity 21    
Precipitation  
Precipitation 0.00 in - - ()
Sea Level Pressure  
Sea Level Pressure 30.08 in    
Wind  
Wind Speed 7 mph (SSW)    
Max Wind Speed 17 mph    
Max Gust Speed 25 mph    
Visibility 10 miles    
Events      
Averages and records for this station are not official NWS values.
T = Trace of Precipitation, MM = Missing Value Source: NWS Daily Summary

Daily Weather History Graph

Daily Weather History Graph

Search for Another Location

Airport:

Trip Planner

Search our weather history database for the weather conditions in past years. The results will help you decide how hot, cold, wet, or windy it might be!

Date:

Astronomy

Nov. 20, 2012 Rise Set
Actual Time 7:32 AM CST 5:08 PM CST
Civil Twilight 7:01 AM CST 5:38 PM CST
Nautical Twilight 6:27 AM CST 6:13 PM CST
Astronomical Twilight 5:54 AM CST 6:46 PM CST
Moon 1:03 PM CST No Moon Set
Length of Visible Light 10h 36m
Length of Day
9h 35m
First Quarter, 51% of the Moon is Illuminated
Nov 20
First Quarter
Nov 28
Full
Dec 6
Last Quarter
Dec 13
New
Dec 19
First Quarter

Hourly Weather History & Observations

Time (CST) Temp. Windchill Dew Point Humidity Pressure Visibility Wind Dir Wind Speed Gust Speed Precip Events Conditions
12:15 AM 34.9 °F - 27.9 °F 76% 30.17 in 10.0 mi Calm Calm - N/A   Clear
12:35 AM 32.5 °F - 25.5 °F 75% 30.17 in 10.0 mi Calm Calm - N/A   Clear
12:55 AM 28.4 °F - 24.6 °F 86% 30.17 in 10.0 mi Calm Calm - N/A   Clear
1:15 AM 29.3 °F 25.6 °F 24.6 °F 83% 30.16 in 10.0 mi WSW 3.5 mph - N/A   Clear
1:35 AM 29.8 °F 23.9 °F 25.0 °F 82% 30.17 in 10.0 mi WSW 5.8 mph - N/A   Clear
1:55 AM 29.3 °F - 24.4 °F 82% 30.17 in 10.0 mi Calm Calm - N/A   Clear
2:15 AM 31.1 °F 27.7 °F 25.3 °F 79% 30.17 in 10.0 mi WNW 3.5 mph - N/A   Clear
2:35 AM 31.1 °F 25.4 °F 25.2 °F 79% 30.18 in 10.0 mi WSW 5.8 mph - N/A   Clear
6:15 AM 26.1 °F 20.5 °F 22.6 °F 87% 30.16 in 10.0 mi SSW 4.6 mph - N/A   Clear
6:35 AM 26.2 °F 17.8 °F 22.6 °F 86% 30.16 in 10.0 mi SW 8.1 mph - N/A   Clear
6:55 AM 25.9 °F 18.2 °F 22.6 °F 88% 30.16 in 10.0 mi SSW 6.9 mph - N/A   Clear
7:15 AM 26.2 °F 19.6 °F 22.8 °F 87% 30.15 in 10.0 mi SSW 5.8 mph - N/A   Clear
7:35 AM 27.7 °F 22.4 °F 24.1 °F 86% 30.16 in 10.0 mi SSW 4.6 mph - N/A   Clear
7:55 AM 28.2 °F 23.1 °F 24.4 °F 86% 30.17 in 10.0 mi SSW 4.6 mph - N/A   Clear
8:15 AM 30.7 °F 24.9 °F 26.4 °F 84% 30.16 in 10.0 mi South 5.8 mph - N/A   Clear
8:35 AM 33.1 °F 26.9 °F 28.4 °F 83% 30.17 in 10.0 mi South 6.9 mph - N/A   Clear
8:55 AM 36.5 °F 29.7 °F 31.3 °F 81% 30.16 in 10.0 mi SSW 9.2 mph - N/A   Clear
9:15 AM 43.3 °F 38.1 °F 32.2 °F 65% 30.16 in 10.0 mi South 9.2 mph - N/A   Clear
9:35 AM 46.4 °F 40.7 °F 32.0 °F 57% 30.16 in 10.0 mi South 12.7 mph - N/A   Clear
9:55 AM 49.3 °F - 31.8 °F 51% 30.15 in 10.0 mi South 11.5 mph - N/A   Clear
10:15 AM 52.2 °F - 31.1 °F 45% 30.15 in 10.0 mi South 12.7 mph - N/A   Clear
10:35 AM 54.1 °F - 31.1 °F 41% 30.15 in 10.0 mi South 13.8 mph - N/A   Clear
10:55 AM 57.6 °F - 30.0 °F 35% 30.14 in 10.0 mi South 15.0 mph - N/A   Clear
11:15 AM 59.0 °F - 30.2 °F 34% 30.14 in 10.0 mi SSW 13.8 mph - N/A   Clear
11:35 AM 59.9 °F - 30.7 °F 33% 30.13 in 10.0 mi South 15.0 mph - N/A   Clear
11:55 AM 62.2 °F - 30.9 °F 31% 30.13 in 10.0 mi SSW 12.7 mph - N/A   Clear
12:15 PM 63.7 °F - 30.6 °F 29% 30.12 in 10.0 mi SSW 11.5 mph - N/A   Clear
12:35 PM 65.1 °F - 30.4 °F 27% 30.11 in 10.0 mi SSW 11.5 mph - N/A   Clear
12:55 PM 66.2 °F - 30.4 °F 26% 30.09 in 10.0 mi South 11.5 mph - N/A   Clear
1:15 PM 66.9 °F - 30.2 °F 25% 30.08 in 10.0 mi SSW 11.5 mph - N/A   Clear
1:35 PM 68.0 °F - 30.0 °F 24% 30.07 in 10.0 mi South 10.4 mph - N/A   Clear
1:55 PM 69.1 °F - 30.0 °F 23% 30.05 in 10.0 mi South 12.7 mph 17.3 mph N/A   Clear
2:15 PM 70.0 °F - 29.7 °F 22% 30.04 in 10.0 mi South 13.8 mph 19.6 mph N/A   Clear
2:35 PM 70.5 °F - 28.9 °F 21% 30.04 in 10.0 mi SSW 15.0 mph - N/A   Clear
2:55 PM 70.7 °F - 29.3 °F 21% 30.02 in 10.0 mi South 16.1 mph 21.9 mph N/A   Clear
3:15 PM 70.9 °F - 29.3 °F 21% 30.02 in 10.0 mi SSW 16.1 mph 23.0 mph N/A   Clear
3:35 PM 70.7 °F - 29.1 °F 21% 30.02 in 10.0 mi SSW 17.3 mph 23.0 mph N/A   Clear
3:55 PM 70.3 °F - 28.8 °F 21% 30.02 in 10.0 mi SSW 16.1 mph 25.3 mph N/A   Clear
4:15 PM 68.7 °F - 29.3 °F 23% 30.02 in 10.0 mi SSW 13.8 mph - N/A   Clear
4:35 PM 66.4 °F - 30.0 °F 26% 30.02 in 10.0 mi South 10.4 mph - N/A   Clear
4:55 PM 64.9 °F - 30.0 °F 27% 30.01 in 10.0 mi South 9.2 mph - N/A   Clear
5:15 PM 62.1 °F - 30.0 °F 30% 30.01 in 10.0 mi South 8.1 mph - N/A   Clear
5:35 PM 58.8 °F - 29.5 °F 33% 30.02 in 10.0 mi South 5.8 mph - N/A   Clear
5:55 PM 56.7 °F - 29.7 °F 36% 30.02 in 10.0 mi South 6.9 mph - N/A   Clear
6:15 PM 55.0 °F - 29.8 °F 38% 30.02 in 10.0 mi South 8.1 mph - N/A   Clear
6:35 PM 54.0 °F - 30.0 °F 40% 30.02 in 10.0 mi South 6.9 mph - N/A   Clear
6:55 PM 54.3 °F - 30.2 °F 40% 30.03 in 10.0 mi South 8.1 mph - N/A   Clear
7:15 PM 54.7 °F - 30.2 °F 39% 30.02 in 10.0 mi South 9.2 mph - N/A   Clear
7:35 PM 54.9 °F - 30.2 °F 39% 30.02 in 10.0 mi South 10.4 mph - N/A   Clear
7:55 PM 54.5 °F - 30.7 °F 40% 30.02 in 10.0 mi South 9.2 mph - N/A   Clear
8:15 PM 53.8 °F - 31.5 °F 43% 30.02 in 10.0 mi South 8.1 mph - N/A   Clear
8:35 PM 53.6 °F - 32.0 °F 44% 30.01 in 10.0 mi South 11.5 mph - N/A   Clear
8:55 PM 54.3 °F - 32.0 °F 43% 30.02 in 10.0 mi South 12.7 mph - N/A   Clear
9:15 PM 53.4 °F - 32.0 °F 44% 30.02 in 10.0 mi South 10.4 mph - N/A   Clear
9:35 PM 52.7 °F - 32.0 °F 45% 30.01 in 10.0 mi South 10.4 mph - N/A   Clear
9:55 PM 52.9 °F - 32.0 °F 45% 30.01 in 10.0 mi SSW 11.5 mph 17.3 mph N/A   Clear
10:15 PM 53.8 °F - 32.0 °F 44% 30.01 in 10.0 mi SSW 12.7 mph - N/A   Clear
10:35 PM 54.1 °F - 32.0 °F 43% 30.00 in 10.0 mi SSW 12.7 mph - N/A   Clear
10:55 PM 53.6 °F - 32.0 °F 44% 30.00 in 10.0 mi SSW 12.7 mph - N/A   Clear
11:15 PM 53.1 °F - 32.0 °F 45% 30.00 in 10.0 mi SSW 10.4 mph - N/A   Clear
11:35 PM 52.0 °F - 32.0 °F 47% 30.00 in 10.0 mi SSW 11.5 mph - N/A   Clear
11:55 PM 50.9 °F - 32.0 °F 48% 30.00 in 10.0 mi SSW 9.2 mph - N/A   Clear